N499C KLUK-

Flight info

Callsign N499C
Flight time N/A
Altitude
Route N
Aircraft A109/L-DOV/C

Departure

Time 2026-04-19 06:12
Airport Cincinnati Municipal Airport Lunken Field (KLUK)

Arrival

Time N/A
Airport -
Time Latitude Longitude Altitude Speed Heading
2026-04-19 05:42 39.84233 -83.84429 1044 ft 0 kts 235°
2026-04-19 05:48 39.84233 -83.84431 1044 ft 0 kts 231°
2026-04-19 05:48 39.84223 -83.84433 1044 ft 3 kts 178°
2026-04-19 05:48 39.84196 -83.84418 1045 ft 5 kts 131°
2026-04-19 05:49 39.84202 -83.84349 1045 ft 9 kts 61°
2026-04-19 05:49 39.84242 -83.84269 1045 ft 11 kts 54°
2026-04-19 05:49 39.84291 -83.84180 1045 ft 12 kts 53°
2026-04-19 05:49 39.84346 -83.84081 1045 ft 13 kts 53°
2026-04-19 05:50 39.84405 -83.83976 1045 ft 14 kts 53°
2026-04-19 05:50 39.84467 -83.83865 1047 ft 14 kts 54°
2026-04-19 05:50 39.84523 -83.83762 1049 ft 14 kts 54°
2026-04-19 05:50 39.84584 -83.83653 1049 ft 15 kts 53°
2026-04-19 05:51 39.84647 -83.83538 1049 ft 16 kts 53°
2026-04-19 05:51 39.84717 -83.83413 1047 ft 18 kts 54°
2026-04-19 05:51 39.84801 -83.83261 1045 ft 22 kts 54°
2026-04-19 05:51 39.84907 -83.83074 1042 ft 27 kts 53°
2026-04-19 05:52 39.84991 -83.82922 1037 ft 19 kts 54°
2026-04-19 05:52 39.85065 -83.82789 1034 ft 11 kts 53°
2026-04-19 05:52 39.85093 -83.82725 1033 ft 7 kts 84°
2026-04-19 05:52 39.85057 -83.82656 1032 ft 10 kts 143°
2026-04-19 05:53 39.85023 -83.82623 1032 ft 0 kts 143°
2026-04-19 05:53 39.85022 -83.82622 1032 ft 1 kts 144°
2026-04-19 05:53 39.85020 -83.82621 1032 ft 0 kts 145°
2026-04-19 05:55 39.85007 -83.82609 1032 ft 5 kts 143°
2026-04-19 05:55 39.84968 -83.82577 1032 ft 5 kts 158°
2026-04-19 05:55 39.84941 -83.82574 1032 ft 4 kts 202°
2026-04-19 05:55 39.84932 -83.82584 1032 ft 0 kts 233°
2026-04-19 05:56 39.84905 -83.82632 1046 ft 28 kts 232°
2026-04-19 05:56 39.84653 -83.83070 1134 ft 81 kts 238°
2026-04-19 05:56 39.84278 -83.83734 1367 ft 99 kts 237°
2026-04-19 05:56 39.83816 -83.84448 1617 ft 106 kts 236°
2026-04-19 05:57 39.83345 -83.85195 1864 ft 109 kts 238°
2026-04-19 05:57 39.82870 -83.86013 1977 ft 116 kts 240°
2026-04-19 05:57 39.82377 -83.86890 2004 ft 121 kts 242°
2026-04-19 05:57 39.81905 -83.87779 2046 ft 119 kts 242°
2026-04-19 05:58 39.81487 -83.88596 2092 ft 99 kts 246°
2026-04-19 05:58 39.81138 -83.89328 2086 ft 94 kts 247°
2026-04-19 05:58 39.80770 -83.90098 2063 ft 109 kts 246°
2026-04-19 05:58 39.80306 -83.90946 1911 ft 119 kts 235°
2026-04-19 05:59 39.79628 -83.91593 1910 ft 127 kts 204°
2026-04-19 05:59 39.78739 -83.91770 1855 ft 129 kts 190°
2026-04-19 05:59 39.77867 -83.91791 1912 ft 114 kts 190°
2026-04-19 05:59 39.77087 -83.91830 1923 ft 111 kts 195°
2026-04-19 06:00 39.76292 -83.91914 1973 ft 119 kts 193°
2026-04-19 06:00 39.75423 -83.91900 1986 ft 129 kts 189°
2026-04-19 06:00 39.74540 -83.92040 2049 ft 129 kts 201°
2026-04-19 06:00 39.73699 -83.92295 2251 ft 119 kts 200°
2026-04-19 06:01 39.72881 -83.92471 2247 ft 118 kts 198°
2026-04-19 06:01 39.72080 -83.92716 2263 ft 119 kts 202°
2026-04-19 06:01 39.71274 -83.92974 2259 ft 118 kts 202°
2026-04-19 06:01 39.70474 -83.93228 2260 ft 117 kts 203°
2026-04-19 06:02 39.69674 -83.93482 2257 ft 118 kts 203°
2026-04-19 06:02 39.68861 -83.93737 2257 ft 120 kts 203°
2026-04-19 06:02 39.68047 -83.93991 2262 ft 121 kts 201°
2026-04-19 06:02 39.67225 -83.94254 2242 ft 125 kts 205°
2026-04-19 06:03 39.66298 -83.94571 2237 ft 148 kts 204°
2026-04-19 06:03 39.65271 -83.94930 2221 ft 157 kts 201°
2026-04-19 06:03 39.64198 -83.95322 2146 ft 160 kts 201°
2026-04-19 06:03 39.63127 -83.95722 2075 ft 160 kts 201°
2026-04-19 06:04 39.62061 -83.96123 2001 ft 158 kts 202°
2026-04-19 06:04 39.61006 -83.96523 1952 ft 157 kts 204°
2026-04-19 06:04 39.59948 -83.96931 1995 ft 157 kts 203°
2026-04-19 06:04 39.58910 -83.97324 2028 ft 153 kts 201°
2026-04-19 06:05 39.57949 -83.97669 2021 ft 134 kts 202°
2026-04-19 06:05 39.57095 -83.98029 2015 ft 125 kts 211°
2026-04-19 06:05 39.56292 -83.98504 2017 ft 126 kts 213°
2026-04-19 06:05 39.55497 -83.98989 2023 ft 126 kts 214°
2026-04-19 06:06 39.54700 -83.99480 2021 ft 126 kts 214°
2026-04-19 06:06 39.53909 -83.99965 2022 ft 126 kts 212°
2026-04-19 06:06 39.53111 -84.00455 2026 ft 126 kts 213°
2026-04-19 06:06 39.52309 -84.00944 2022 ft 127 kts 213°
2026-04-19 06:07 39.51499 -84.01424 2028 ft 127 kts 213°
2026-04-19 06:07 39.50699 -84.01884 2024 ft 125 kts 213°
2026-04-19 06:07 39.49907 -84.02340 2017 ft 123 kts 214°
2026-04-19 06:07 39.49127 -84.02785 2009 ft 121 kts 213°
2026-04-19 06:08 39.48356 -84.03220 2007 ft 121 kts 214°
2026-04-19 06:08 39.47563 -84.03656 2007 ft 124 kts 213°
2026-04-19 06:08 39.46760 -84.04107 2012 ft 126 kts 213°
2026-04-19 06:08 39.45944 -84.04573 2010 ft 128 kts 213°
2026-04-19 06:09 39.45129 -84.05035 2011 ft 128 kts 213°
2026-04-19 06:09 39.44323 -84.05499 2009 ft 125 kts 213°
2026-04-19 06:09 39.43526 -84.05944 2008 ft 124 kts 214°
2026-04-19 06:09 39.42725 -84.06373 2012 ft 124 kts 213°
2026-04-19 06:10 39.41926 -84.06801 2012 ft 123 kts 214°
2026-04-19 06:10 39.41123 -84.07236 2011 ft 124 kts 212°
2026-04-19 06:10 39.40333 -84.07688 2008 ft 126 kts 215°
2026-04-19 06:10 39.39515 -84.08161 2006 ft 127 kts 214°
2026-04-19 06:11 39.38699 -84.08629 2010 ft 128 kts 213°
2026-04-19 06:11 39.37887 -84.09100 2004 ft 128 kts 215°
2026-04-19 06:11 39.37080 -84.09561 2011 ft 128 kts 212°
2026-04-19 06:12 39.35444 -84.10495 2016 ft 128 kts 214°
2026-04-19 06:12 39.34620 -84.10957 2018 ft 127 kts 213°
2026-04-19 06:12 39.33805 -84.11412 2021 ft 127 kts 213°
2026-04-19 06:12 39.33018 -84.11913 2022 ft 124 kts 222°
2026-04-19 06:13 39.32288 -84.12506 2025 ft 123 kts 223°
2026-04-19 06:13 39.31563 -84.13102 2024 ft 123 kts 224°
2026-04-19 06:13 39.30838 -84.13711 2027 ft 123 kts 224°
2026-04-19 06:13 39.30110 -84.14326 2028 ft 124 kts 225°
2026-04-19 06:14 39.29388 -84.14929 2030 ft 123 kts 224°
2026-04-19 06:14 39.28666 -84.15540 2031 ft 124 kts 223°
2026-04-19 06:14 39.27948 -84.16157 2032 ft 124 kts 224°
2026-04-19 06:14 39.27226 -84.16773 2019 ft 125 kts 223°
2026-04-19 06:15 39.26500 -84.17388 2000 ft 125 kts 224°
2026-04-19 06:15 39.25772 -84.18008 1994 ft 125 kts 223°
2026-04-19 06:15 39.25042 -84.18638 2009 ft 121 kts 222°
2026-04-19 06:15 39.24393 -84.19169 2004 ft 97 kts 224°
2026-04-19 06:16 39.23851 -84.19570 1988 ft 86 kts 223°
2026-04-19 06:16 39.23328 -84.19930 1986 ft 84 kts 224°
2026-04-19 06:16 39.22804 -84.20280 1989 ft 85 kts 223°
2026-04-19 06:16 39.22279 -84.20642 1992 ft 84 kts 223°
2026-04-19 06:17 39.21753 -84.21003 1979 ft 88 kts 225°
2026-04-19 06:17 39.21161 -84.21464 1970 ft 112 kts 225°
2026-04-19 06:17 39.20459 -84.22050 1995 ft 124 kts 223°
2026-04-19 06:17 39.19873 -84.22826 2001 ft 117 kts 243°
2026-04-19 06:18 39.19376 -84.23639 1992 ft 115 kts 244°
2026-04-19 06:18 39.18883 -84.24467 1994 ft 116 kts 245°
2026-04-19 06:18 39.18397 -84.25296 1992 ft 117 kts 244°
2026-04-19 06:18 39.17903 -84.26144 1995 ft 118 kts 244°
2026-04-19 06:19 39.17403 -84.26980 1998 ft 118 kts 243°
2026-04-19 06:19 39.16907 -84.27845 1994 ft 119 kts 244°
2026-04-19 06:19 39.16420 -84.28699 1998 ft 118 kts 243°
2026-04-19 06:19 39.15939 -84.29547 1997 ft 117 kts 244°
2026-04-19 06:20 39.15448 -84.30395 1993 ft 117 kts 245°
2026-04-19 06:20 39.14957 -84.31226 1996 ft 117 kts 245°
2026-04-19 06:20 39.14464 -84.32063 2001 ft 116 kts 246°
2026-04-19 06:20 39.14070 -84.32939 2007 ft 112 kts 253°
2026-04-19 06:21 39.13707 -84.33830 1999 ft 111 kts 255°
2026-04-19 06:21 39.13349 -84.34720 2004 ft 112 kts 253°
2026-04-19 06:21 39.13003 -84.35619 1960 ft 115 kts 255°
2026-04-19 06:21 39.12641 -84.36524 1842 ft 113 kts 255°
2026-04-19 06:22 39.12301 -84.37447 1708 ft 113 kts 253°
2026-04-19 06:22 39.11974 -84.38326 1641 ft 103 kts 254°
2026-04-19 06:22 39.11682 -84.39130 1533 ft 93 kts 251°
2026-04-19 06:22 39.11420 -84.39854 1390 ft 87 kts 251°
2026-04-19 06:23 39.11198 -84.40550 1258 ft 78 kts 253°
2026-04-19 06:23 39.11005 -84.41143 1131 ft 65 kts 250°
2026-04-19 06:23 39.10838 -84.41580 947 ft 45 kts 245°
2026-04-19 06:23 39.10728 -84.41868 687 ft 27 kts 245°
2026-04-19 06:24 39.10689 -84.42023 494 ft 9 kts 254°
2026-04-19 06:24 39.10684 -84.42037 464 ft 0 kts 244°
2026-04-19 06:24 39.10683 -84.42039 464 ft 0 kts 244°
2026-04-19 06:24 39.10679 -84.42100 488 ft 13 kts 261°
2026-04-19 06:25 39.10678 -84.42214 488 ft 9 kts 257°
2026-04-19 06:25 39.10673 -84.42283 485 ft 5 kts 249°
2026-04-19 06:25 39.10669 -84.42298 469 ft 0 kts 248°